Flag for U.S.A. Weather past 2 weeks in Daly City, California, U.S.A.

47 °F

Partly cloudy.

Feels Like: 45 °F
Forecast: 42 / 53 °F
Wind: 5 mph from Southwest

Location: San Francisco International Airport

Current Time: Nov 25, 2015 at 2:48:36 AM

Latest Report: Nov 25, 2015 at 1:56 AM

Visibility: 10 mi

Pressure: 29.89 "Hg

Humidity: 83%

Dew point: 42 °F

Location of Daly CityLocation

Historic Weather in Daly City — Graph


Daly City temperature yesterday

Maximum temperature yesterday: 58 °F (at 8:56 AM)
Minimum temperature yesterday: 48 °F (at 11:56 PM)
Average temperature yesterday: 53 °F

Past Weeks' High & Low Weather Summary

High68 °F (Nov 19, 2:56 PM)93% (Nov 15, 4:56 AM)30.42 "Hg (Nov 15, 4:56 AM)
Low44 °F (Nov 11, 5:56 AM)35% (Nov 16, 12:56 PM)29.77 "Hg (Nov 15, 5:56 AM)
Average55 °F72%30.10 "Hg
* Reported Nov 10 1:56 AM — Nov 25 1:56 AM, Daly City, Weather by CustomWeather, © 2015

Note: Actual official high and low records may vary slightly from our data, if they occured in-between our weather recording intervals... More about our weather records


Daly City weather history for previous 24 hours

Time TempWeatherWind HumidityBarometerVisibility
1:56 AM
Wed, Nov 25
47 °FPartly cloudy.5 mph83%29.89 "Hg10 mi
12:56 AM47 °FPartly cloudy.5 mph80%29.88 "Hg10 mi
11:56 PM
Tue, Nov 24
48 °FOvercast.7 mph77%29.90 "Hg10 mi
10:56 PM49 °FPassing clouds.6 mph74%29.90 "Hg10 mi
9:56 PM50 °FPassing clouds.6 mph71%29.92 "Hg10 mi
8:56 PM50 °FPassing clouds.3 mph71%29.91 "Hg10 mi
7:56 PM51 °FPartly cloudy.9 mph69%29.91 "Hg10 mi
6:56 PM51 °FPartly cloudy.6 mph69%29.92 "Hg10 mi
5:56 PM51 °FPassing clouds.6 mph66%29.92 "Hg10 mi
4:56 PM51 °FPassing clouds.12 mph66%29.92 "Hg10 mi
3:56 PM53 °FScattered clouds.22 mph59%29.92 "Hg10 mi
2:56 PM55 °FScattered clouds.23 mph59%29.92 "Hg10 mi
1:56 PM55 °FPassing clouds.18 mph57%29.92 "Hg10 mi
12:56 PM55 °FScattered clouds.18 mph59%29.91 "Hg10 mi
11:56 AM54 °FPartly sunny.21 mph69%29.91 "Hg10 mi
10:56 AM52 °FLight rain. Cloudy.21 mph83%29.91 "Hg6 mi
9:56 AM56 °FRain. Fog.9 mph87%29.89 "Hg4 mi
8:56 AM58 °FLight rain. Cloudy.14 mph72%29.89 "Hg10 mi
7:56 AM56 °FBroken clouds.6 mph77%29.89 "Hg10 mi
6:56 AM56 °FPartly cloudy.6 mph75%29.90 "Hg10 mi
5:56 AM56 °FPassing clouds.6 mph77%29.90 "Hg10 mi
4:56 AM54 °FPartly cloudy.No wind83%29.91 "Hg10 mi
3:56 AM53 °FPassing clouds.No wind86%29.91 "Hg10 mi
2:56 AM54 °FPartly cloudy.5 mph80%29.93 "Hg10 mi
Weather by CustomWeather, © 2015

See weather overviewHow to use our weather pages